GW7331 Weather Reports


time (UTC)temp
C
wind
direction
speed
KPH
gust
KPH
rain 1hr
cm
rain 24hr
cm
rain mn
cm
humidity
%
barometer
mb
20260505084554 10 0 0.0 0.0 0.00 0.00 0.00 95 1013.7
20260505083058 10 0 0.0 0.0 0.00 0.00 0.00 95 1013.6
20260505081552 10 0 0.0 0.0 0.00 0.00 0.00 94 1013.6
20260505080050 10 0 0.0 0.0 0.00 0.00 0.00 94 1013.6
20260505074537 10 0 0.0 0.0 0.00 0.00 0.00 94 1013.9
20260505073049 10 0 0.0 0.0 0.00 0.00 0.00 94 1013.7
20260505071545 10 0 0.0 0.0 0.00 0.00 0.00 94 1013.8
20260505070043 10 0 0.0 0.0 0.00 0.00 0.00 94 1014.0
20260505064537 10 0 0.0 0.0 0.00 0.00 0.00 94 1014.1
20260505063041 10 0 0.0 0.0 0.00 0.00 0.00 94 1014.5
20260505061542 10 0 0.0 0.0 0.00 0.00 0.00 93 1014.6
20260505060053 11 0 0.0 0.0 0.00 0.00 0.00 93 1014.9
20260505054541 11 0 0.0 0.0 0.00 0.00 0.00 93 1014.8
20260505053040 11 0 0.0 0.0 0.00 0.00 0.00 93 1015.1
20260505051537 11 0 0.0 0.0 0.00 0.00 0.00 92 1015.3
20260505041550 12 0 0.0 0.0 0.00 0.00 0.00 91 1015.3
20260505040046 12 0 0.0 0.0 0.00 0.00 0.00 90 1015.3
20260505034538 12 0 0.0 0.0 0.00 0.00 0.00 90 1015.3
20260505033036 12 0 0.0 0.0 0.00 0.00 0.00 89 1015.3
20260505031539 13 0 0.0 0.0 0.00 0.00 0.00 89 1015.4
20260505030051 13 0 0.0 0.0 0.00 0.00 0.00 89 1015.4
20260505024538 13 0 0.0 0.0 0.00 0.00 0.00 88 1015.2
20260505023037 13 0 0.0 0.0 0.00 0.00 0.00 87 1015.1
20260505021536 13 0 0.0 0.0 0.00 0.00 0.00 86 1014.9
20260505020040 14 0 0.0 0.0 0.00 0.00 0.00 84 1015.1
20260505014600 15 0 0.0 0.0 0.00 0.00 0.00 83 1015.1
20260505013047 15 0 0.0 0.0 0.00 0.00 0.00 80 1015.0
20260505011542 16 0 0.0 0.0 0.00 0.00 0.00 78 1015.3
20260505010048 17 0 0.0 0.0 0.00 0.00 0.00 75 1015.4
20260505004548 18 0 0.0 0.0 0.00 0.00 0.00 71 1015.5
20260505003053 20 0 0.0 1.6 0.00 0.00 0.00 64 1015.4
20260505001541 22 0 0.0 0.0 0.00 0.00 0.00 60 1015.3
20260505000037 23 190 0.0 8.0 0.00 0.00 0.00 56 1015.5
20260504234536 23 0 0.0 6.4 0.00 0.00 0.00 54 1015.6
20260504233037 23 214 3.2 9.7 0.00 0.00 0.00 50 1015.9
20260504231539 23 185 1.6 8.0 0.00 0.00 0.00 49 1015.6
20260504230039 23 210 1.6 6.4 0.00 0.00 0.00 48 1015.4
20260504224538 23 175 4.8 11.3 0.00 0.00 0.00 47 1015.7
20260504223055 23 241 6.4 14.5 0.00 0.00 0.00 44 1015.7
20260504221535 24 146 1.6 14.5 0.00 0.00 0.00 45 1015.4
20260504220035 24 199 6.4 14.5 0.00 0.00 0.00 44 1015.7
20260504214539 24 207 3.2 12.9 0.00 0.00 0.00 44 1015.6
20260504213038 25 205 6.4 14.5 0.00 0.00 0.00 42 1015.5
20260504211604 25 223 8.0 16.1 0.00 0.00 0.00 41 1015.6
20260504210046 25 135 1.6 16.1 0.00 0.00 0.00 42 1015.8
20260504204542 25 193 8.0 12.9 0.00 0.00 0.00 44 1016.0
20260504203042 25 235 6.4 16.1 0.00 0.00 0.00 42 1016.0
20260504201538 25 210 4.8 20.9 0.00 0.00 0.00 41 1016.0
20260504200039 26 167 3.2 9.7 0.00 0.00 0.00 40 1016.1
20260504194549 26 241 3.2 9.7 0.00 0.00 0.00 37 1016.3
20260504193037 26 240 1.6 9.7 0.00 0.00 0.00 42 1016.4
20260504191544 26 68 3.2 14.5 0.00 0.00 0.00 37 1016.6
20260504190044 26 193 3.2 16.1 0.00 0.00 0.00 40 1016.8
20260504184547 25 156 6.4 16.1 0.00 0.00 0.00 37 1017.0
20260504183038 26 202 4.8 12.9 0.00 0.00 0.00 33 1017.2
20260504181537 26 188 3.2 8.0 0.00 0.00 0.00 34 1017.4
20260504180036 25 218 8.0 16.1 0.00 0.00 0.00 35 1017.4
20260504174544 26 201 3.2 9.7 0.00 0.00 0.00 35 1017.4
20260504173038 26 119 1.6 8.0 0.00 0.00 0.00 36 1017.3
20260504171540 25 209 1.6 16.1 0.00 0.00 0.00 38 1017.6